Location: Days
(41.3591°N, 106.7339°W)
Time: 05:10:31
(UTC+00:00)

First-Move - Pass Details

Date: 03 July 2022
Orbit: 572 x 658 km, 97.6° (Epoch: 11 August)

Event Time Altitude Azimuth Distance (km) Brightness Sun altitude
Rises 09:46:14 0° 37° (NE) 2,966 ? -16.3°
Reaches altitude 10° 09:50:24 10° 75° (ENE) 2,064 ? -15.9°
Maximum altitude 09:51:28 11° 89° (E) 2,015 ? -15.7°
Drops below altitude 10° 09:52:32 10° 103° (ESE) 2,066 ? -15.6°
Sets 09:56:42 0° 141° (SE) 2,976 ? -15.1°
